NWS Melbourne » East Central Florida Hourly Weather Roundup

MIARWRMLB 000
TTAA00 KMLB 311311
HOURLY WEATHER ROUNDUP AROUND FLORIDA
NATIONAL WEATHER SERVICE OFFICE MELBOURNE FL
900 AM EDT FRI OCT 31 2014
  
CITY           SKY/WX    TMP DP  RH WIND       PRES   REMARKS
MELBOURNE      MOSUNNY   70  67  90 W5        29.86R                  
FORT PIERCE    MOSUNNY   69  67  93 W6        29.85R                  
ORLANDO INTL   MOSUNNY   69  62  78 NW5       29.88R                  
DAYTONA BEACH  MOSUNNY   64  61  90 W5        29.87R                  
VERO BEACH     PTSUNNY   68  67  96 W8        29.85R                  
$$
...ELSEWHERE ACROSS CENTRAL FLORIDA...
  
CITY           SKY/WX    TMP DP  RH WIND       PRES   REMARKS
PATRICK AFB    MOSUNNY   71  67  90 NW8       29.85S                  
JFK SPACE CTR  PTSUNNY   69  66  90 NW9       29.86R                  
CAPE CANAVERAL MOSUNNY   71  67  89 NW9       29.85R                  
TITUSVILLE     PTSUNNY   66  64  94 W7        29.86R                  
ORLANDO EXEC   PTSUNNY   69  59  70 NW8       29.87S                  
LEESBURG       PTSUNNY   66  56  70 NW7       29.89R                  
SANFORD        PTSUNNY   67  59  75 W3        29.87R                  
WINTER HAVEN   SUNNY     67  58  72 N8        29.89S                  
KISSIMMEE      MOSUNNY   70  64  83 NW6       29.88R                  
OKEECHOBEE       N/A     66  66 100 MISG        N/A                   
TAMPA          MOSUNNY   68  56  65 N5        29.91R                  
$$
...NORTHERN FLORIDA...
  
CITY           SKY/WX    TMP DP  RH WIND       PRES   REMARKS
DELAND         MOSUNNY   64  57  77 NW6       29.89R                  
NEW SMYRNA BCH MOSUNNY   68  64  88 NW6       29.87R                  
ORMOND BEACH   PTSUNNY   63  59  88 NW3       29.87R                  
PALM COAST     SUNNY    N/A N/A N/A W6        29.86S                  
ST AUGUSTINE   PTSUNNY   63  61  94 NW8       29.88R                  
OCALA          SUNNY     57  50  77 N3        29.90R                  
GAINESVILLE    MOSUNNY   56  53  90 W3        29.90S                  
JACKSONVILLE   MOSUNNY   60  56  86 N5        29.88R                  
TALLAHASSEE    SUNNY     49  42  77 CALM      29.96R                  
$$
...ALONG THE SOUTHEAST COAST TO THE KEYS...
  
CITY           SKY/WX    TMP DP  RH WIND       PRES   REMARKS
WEST PALM BCH  MOSUNNY   71  69  93 W5        29.85R                  
MIAMI          MOSUNNY   75  70  84 SW3       29.87S                  
KEY WEST       SUNNY     79  71  76 W6        29.89R                  
$$
...MARINE REPORTS...
  
STATION/POSITION TIME  TEMP    WIND        PRES    WAVE   SWELL
                       AIR SEA DIR/SP/G            HT/PER HT/PER/DIR
                 (UTC) (F)     (DEG/KT/KT) (MB)    (FT/S) (FT/S/D)
ST AUGUSTINE FP  1300   62     310/  7/  9 1012.0R
20NM E CAPE CANA 1300   75 79  280/  6/  8 1010.7S   2/ 8   2/ 90/ 8
120 E NEW SMYRNA 1300   75 81  210/  2/  2 1010.3S   3/ 8   3/100/ 8
TRIDENT PIER     1300   70 78  300/  6/  7 1010.3S
SEBASTIAN INLET  1300   72     290/  5     1011.0S
4NM E PORT CANAV 1300      78                N/A     1/ 8
6NM NE FPR INLET 1300      79                N/A     2/ 7
SETTLEMENT PT GB 1300   79     260/  9/ 10 1011.5R
$$
  
 


USA.gov is the U.S. government's official web portal to all federal, state and local government web resources and services.